Wind_Speed
1 3 6 9 9 8 9 11 8 2 1 3 3 4 7 8 9 6 3 3 2 4 11 14 14 18 20 18 21 18 8 11 17 18 17 15 11 10 12 11 12 14 13 10 13 17 21 23 27 30 28 29 32 33 33 32 32 29 28 29 26 25 24 21 19 17 15 13 11 10 9 8 7 8 8 8 9 10 10 10 10 10 10 11 12 13
2 6 11 11 6 2 3 5 3 1 2 4 5 5 6 7 9 4 3 3 3 3 9 10 12 17 19 18 20 17 13 17 22 19 18 17 12 10 12 13 13 13 9 7 11 15 18 21 26 29 30 31 31 33 35 35 34 30 29 31 28 26 26 22 20 18 16 14 12 11 9 9 8 8 8 8 9 11 12 11 11 11 11 12 13 13
4 10 12 4 5 5 3 3 5 6 4 4 3 4 6 5 5 4 3 3 4 4 6 7 10 17 19 19 22 20 15 18 23 19 18 17 13 11 11 12 12 12 11 11 13 15 19 22 25 27 28 32 31 32 36 36 35 31 30 32 29 28 29 24 22 20 17 15 14 12 10 9 8 8 10 11 11 12 13 12 12 12 12 12 13 14
5 8 6 4 7 7 3 3 6 5 4 6 4 4 7 2 1 5 0 3 4 4 6 9 11 14 16 17 19 17 12 15 19 18 17 16 16 15 10 9 11 13 14 13 13 14 17 20 24 25 26 28 29 30 34 35 34 33 33 32 30 30 30 26 25 23 18 15 15 13 11 11 10 10 11 13 13 13 13 12 12 12 12 13 14 14
8 3 3 6 5 7 4 5 8 6 5 6 6 8 9 4 4 6 2 2 5 4 3 8 11 10 9 10 10 5 2 9 12 12 15 15 14 13 9 9 12 14 13 12 13 14 16 20 24 25 24 26 28 31 37 38 36 36 36 34 32 32 30 28 28 25 19 16 14 12 12 11 11 11 11 12 11 11 11 11 11 11 13 13 14 15
9 2 6 6 4 4 5 5 8 8 5 5 8 12 12 7 5 3 3 4 5 4 1 3 10 7 3 5 6 1 2 6 5 6 12 13 9 9 10 11 11 12 12 11 13 14 16 19 22 23 23 26 29 32 39 43 41 39 39 37 35 33 31 30 29 25 20 17 14 12 11 10 9 10 10 10 10 9 10 11 12 13 13 14 14 15
3 1 2 4 5 6 6 7 7 8 6 5 4 7 9 7 4 2 1 2 4 4 1 2 7 9 3 6 6 3 4 6 4 6 9 10 7 7 9 9 9 11 10 10 12 13 15 18 20 22 25 30 32 33 39 44 43 41 39 38 38 34 32 31 29 26 22 18 15 13 12 11 10 10 9 10 11 11 12 13 14 14 14 15 15 15
3 4 2 4 6 6 7 7 7 10 6 4 1 1 4 5 4 4 3 4 4 4 2 3 5 11 8 9 11 9 9 9 10 14 11 11 14 9 7 8 10 11 10 10 11 13 15 17 21 24 27 32 33 33 38 43 43 41 39 40 39 35 32 33 31 28 25 19 15 15 14 13 13 12 11 10 12 13 14 15 14 15 15 16 16 16
3 5 7 8 7 7 7 2 5 12 7 0 2 3 4 4 3 4 3 4 2 4 5 7 8 9 9 7 7 8 11 12 14 17 15 14 16 10 6 9 11 10 10 10 11 13 14 17 22 25 27 29 30 32 38 43 42 41 40 40 40 36 33 33 31 29 27 21 17 15 14 14 14 14 12 11 11 13 14 15 15 15 16 16 16 17
2 3 4 6 7 6 3 4 1 7 4 3 5 5 6 5 4 3 2 3 1 4 8 9 11 7 10 6 7 2 6 11 12 13 13 11 11 7 5 8 9 8 8 9 10 11 13 17 21 23 24 24 26 33 39 41 41 41 41 40 39 36 33 33 33 30 28 24 19 17 16 15 14 12 12 11 11 12 13 14 15 15 15 16 17 17
2 1 2 3 4 2 5 5 4 1 3 6 6 4 4 3 3 1 1 0 4 7 7 11 16 12 10 2 9 5 6 10 10 8 9 9 8 7 7 8 8 8 7 8 9 10 11 14 17 20 22 22 25 32 37 38 41 42 41 41 39 36 34 33 34 32 29 27 22 19 18 18 16 13 12 12 11 11 11 12 13 13 14 16 16 17
2 2 2 1 1 3 5 5 4 4 3 4 4 2 1 1 2 2 1 2 6 7 2 6 12 14 11 4 7 6 6 9 9 8 9 9 8 7 7 7 7 7 6 7 8 8 10 12 15 18 21 22 23 29 34 37 41 42 42 42 38 35 35 35 35 33 30 28 25 21 20 19 17 15 14 13 11 10 10 11 12 12 12 14 14 14
3 4 3 1 0 3 5 4 4 2 2 3 4 3 2 3 2 3 3 4 6 6 2 2 4 9 14 11 6 5 4 9 9 7 7 7 8 7 5 6 5 5 6 7 7 8 9 11 13 17 21 22 24 29 32 34 39 41 42 42 37 34 36 36 35 34 31 29 26 23 22 20 18 17 16 14 12 11 11 11 12 11 12 12 12 13
2 1 4 4 2 4 9 8 4 4 7 8 7 6 5 4 2 5 5 3 5 4 3 4 2 6 11 10 11 14 14 13 9 8 8 6 6 3 2 4 4 5 6 6 7 8 9 10 12 16 20 22 23 27 30 32 38 41 41 41 36 33 37 38 36 34 32 29 26 24 22 20 18 17 16 14 13 13 13 12 12 12 13 13 13 14
5 6 7 9 3 8 14 10 2 5 7 8 5 4 5 4 4 6 5 4 6 4 2 4 3 5 5 2 7 13 14 10 6 7 9 7 5 1 2 1 3 4 5 5 6 8 9 10 13 15 18 21 22 26 29 30 36 40 41 41 35 33 38 38 37 35 32 29 27 24 23 21 19 17 15 15 15 15 14 14 14 13 14 14 14 16
6 8 4 5 0 7 10 3 3 6 5 3 2 1 4 4 5 4 3 1 3 6 4 5 4 7 4 1 3 3 4 4 4 8 9 9 8 4 3 5 5 5 5 6 7 8 9 10 13 15 17 19 20 24 27 29 36 41 43 42 35 34 40 40 37 37 32 29 27 24 23 21 20 19 17 16 16 16 16 15 15 14 15 15 15 16
4 4 3 4 2 2 1 3 2 1 2 4 3 4 3 0 3 4 3 2 2 6 7 4 6 10 7 4 6 6 6 4 4 9 11 11 10 7 6 7 7 7 6 7 7 7 9 10 12 15 17 19 21 25 29 33 41 45 45 43 35 34 41 40 38 37 32 29 26 24 23 21 20 20 19 18 17 16 15 15 15 14 14 15 15 16
4 3 1 3 0 1 2 2 2 2 1 4 4 5 3 2 0 2 3 1 2 7 7 5 10 13 10 5 4 7 8 6 8 12 11 10 9 8 8 8 7 7 6 6 7 7 8 10 12 15 18 21 24 27 30 33 39 43 44 45 39 37 42 40 37 36 32 29 26 23 23 21 21 20 19 18 17 15 15 14 13 13 14 15 15 16
2 2 2 1 0 3 1 2 2 1 1 1 2 1 1 2 3 3 2 3 6 7 7 12 16 15 11 6 2 6 10 10 12 13 10 10 10 9 10 9 8 8 5 6 8 8 9 10 13 16 19 21 23 25 26 28 36 41 43 45 43 41 42 40 37 35 31 28 26 23 22 21 21 20 18 17 15 14 13 13 12 13 14 15 15 16
2 4 3 1 2 2 2 4 6 5 3 0 2 2 2 2 2 3 2 2 5 6 8 15 17 14 6 5 4 6 9 11 11 10 11 12 11 10 9 8 8 7 7 7 8 8 10 11 13 17 18 20 21 22 23 28 36 40 41 43 42 40 39 38 37 34 30 27 25 23 22 21 20 19 17 15 14 13 12 11 12 12 14 15 16 16
3 4 5 1 2 2 4 7 9 9 8 6 5 6 5 2 1 2 2 2 3 5 7 9 13 14 2 7 4 4 6 8 8 7 9 10 11 11 9 8 8 7 8 8 8 9 10 10 12 15 16 16 18 19 23 30 34 36 38 41 41 39 38 37 35 32 29 26 25 23 22 20 19 17 16 14 12 12 11 11 11 12 14 15 16 16
4 4 6 3 2 5 5 3 3 3 3 6 7 8 9 7 4 3 5 3 1 5 7 5 10 16 4 6 3 3 4 4 6 7 7 8 12 12 10 10 10 8 8 8 9 9 8 8 10 13 14 15 18 19 23 28 31 33 37 40 39 39 39 37 35 32 29 26 25 23 22 20 18 16 14 12 11 10 10 10 11 12 14 15 15 16
3 2 5 6 5 4 2 2 1 2 2 2 4 5 7 7 7 7 7 3 2 4 5 1 7 14 3 6 2 3 5 4 5 8 7 7 10 11 10 9 8 8 9 8 7 7 6 7 8 11 14 16 18 20 22 26 29 31 36 39 39 39 38 36 34 31 28 26 25 23 21 19 17 15 13 11 10 10 9 10 11 12 13 14 15 16
2 2 4 5 4 2 1 3 2 0 1 3 6 6 6 7 9 7 4 1 2 5 5 3 7 14 3 6 1 1 4 3 4 6 7 7 7 8 7 7 6 7 8 7 7 5 5 6 7 9 12 15 18 19 21 24 26 28 33 38 39 38 37 35 33 31 28 26 24 22 20 18 16 14 12 11 10 9 9 10 11 12 13 14 15 16
4 4 4 4 5 5 3 3 3 3 4 5 5 7 9 10 10 4 2 1 4 12 12 6 9 14 5 4 2 3 3 4 5 4 5 6 5 5 5 5 7 7 7 8 8 6 7 8 9 10 11 15 18 19 21 23 24 27 32 37 38 37 36 34 32 30 28 26 23 21 19 18 16 14 12 11 10 9 10 10 10 11 13 14 14 16
6 5 7 8 9 9 10 10 5 4 6 5 4 9 13 15 17 10 4 6 10 13 12 9 13 15 11 10 9 6 5 6 5 4 5 7 6 5 5 5 7 7 8 10 9 8 8 9 10 10 11 15 18 19 21 23 24 26 29 33 37 37 36 33 31 29 27 25 23 21 19 18 16 14 13 11 10 9 9 9 10 11 12 13 15 16
3 5 12 15 15 13 15 16 6 6 7 7 7 13 15 18 21 13 7 11 9 4 8 14 18 16 16 21 23 19 15 12 8 6 6 7 7 7 7 8 8 7 8 9 7 7 9 10 12 13 13 15 18 19 21 23 25 26 28 31 35 36 35 33 30 29 27 25 23 21 20 19 17 15 13 11 10 9 9 9 10 11 12 13 15 16
2 5 13 18 21 20 20 24 16 8 9 10 10 13 16 17 19 16 17 14 5 3 10 18 20 17 16 21 27 28 22 14 10 12 11 9 8 7 8 10 11 10 9 8 7 9 12 12 13 14 13 15 18 19 21 22 24 26 28 31 34 35 34 32 31 29 27 25 24 22 21 19 17 15 12 11 9 8 8 8 10 11 12 13 15 16
3 7 12 16 20 20 19 24 22 13 10 10 10 12 14 17 20 22 23 16 9 10 16 16 18 19 16 21 28 27 20 14 12 13 12 10 7 6 7 9 11 11 11 11 11 12 14 13 13 14 14 15 18 20 22 22 23 24 27 31 33 34 33 32 31 30 28 26 24 22 21 19 17 14 12 11 9 8 8 8 10 10 12 13 14 15
3 7 13 16 17 18 18 21 22 16 10 10 11 10 12 18 22 21 19 17 18 21 16 11 17 20 18 23 26 22 18 16 13 14 15 13 13 13 13 14 14 11 10 12 14 14 13 13 14 14 14 15 18 22 23 23 24 25 26 30 33 33 33 33 32 30 28 26 24 22 21 18 16 14 12 11 9 8 8 8 9 10 11 12 13 15
4 8 12 13 12 15 19 23 24 19 15 15 14 12 17 24 22 17 16 16 17 18 15 13 15 16 18 23 22 20 19 16 14 19 22 19 17 17 17 17 18 16 11 11 14 13 11 13 13 13 15 16 19 23 24 23 24 25 26 30 33 33 33 33 32 30 28 26 24 23 21 18 16 14 12 11 9 8 8 8 8 9 10 11 14 15
5 7 9 9 10 12 17 22 22 16 12 10 13 19 27 26 18 17 18 15 13 14 16 15 13 14 19 22 20 19 19 17 19 22 21 19 15 13 14 17 18 18 16 11 11 11 12 13 14 15 16 17 20 23 23 24 25 25 26 30 33 33 33 33 32 30 28 26 24 23 21 18 17 15 12 11 9 8 7 7 7 7 9 11 13 14
5 7 7 8 9 11 16 18 13 8 5 7 15 26 29 23 19 21 21 18 17 15 12 12 13 15 19 19 18 19 18 18 19 18 17 17 14 9 12 17 18 20 20 13 8 11 13 13 13 15 16 17 21 24 26 29 28 27 29 33 34 35 35 33 32 31 28 26 25 24 21 19 17 14 12 10 8 7 6 6 5 6 9 11 13 14
7 10 8 8 8 11 14 11 4 6 11 13 14 18 20 21 24 25 22 20 18 14 12 15 18 19 20 20 21 19 18 18 18 18 19 15 9 8 15 20 20 20 21 14 8 9 11 11 11 14 16 17 20 23 27 32 32 30 33 36 36 36 36 34 32 30 29 27 26 24 21 19 17 14 12 10 8 7 6 4 4 6 8 10 12 13
9 11 10 8 8 8 6 3 5 10 14 10 5 10 18 24 27 26 24 22 18 16 19 23 24 24 25 25 21 17 17 19 19 23 25 18 10 12 18 21 20 20 18 11 7 9 10 11 11 11 13 17 22 26 29 33 34 34 36 37 37 37 36 35 32 30 29 28 26 24 21 19 17 15 12 10 9 7 4 2 3 6 8 10 12 13
13 11 9 8 7 4 4 7 10 8 3 1 5 13 18 20 21 20 18 18 18 18 22 24 23 25 27 25 19 16 18 19 17 20 24 18 13 15 16 18 19 19 16 10 7 8 9 10 12 13 16 20 26 31 32 34 37 38 37 37 37 36 35 33 31 29 28 28 26 24 22 19 17 15 13 11 9 5 2 1 3 5 7 9 12 13
17 12 8 8 8 7 8 11 11 7 5 6 12 15 16 15 15 13 11 13 14 18 22 19 17 23 27 25 23 18 12 9 10 17 22 17 14 17 18 17 18 19 16 12 7 6 9 12 15 17 21 26 30 33 35 37 40 40 37 35 35 34 33 32 31 30 29 28 27 25 22 20 18 16 14 11 8 4 2 1 3 5 6 9 12 13
17 14 11 9 8 8 10 9 7 8 9 13 18 21 21 15 9 7 7 8 10 19 24 18 17 24 26 26 26 15 2 2 8 14 19 16 12 15 18 17 16 15 14 10 5 3 6 12 17 20 25 29 31 35 39 41 42 41 37 34 34 33 32 31 31 31 30 29 27 24 22 20 18 16 14 11 7 4 2 1 3 5 7 9 12 13
19 13 12 11 7 7 9 7 7 10 9 11 20 26 24 11 7 7 5 8 13 25 26 19 19 24 23 25 24 11 2 5 9 11 17 16 11 12 14 13 11 10 8 6 6 6 8 13 18 21 26 30 31 35 40 43 45 43 38 35 35 33 32 32 33 33 31 29 27 24 22 20 18 16 13 9 7 5 2 1 3 5 7 9 11 13
18 10 11 13 10 11 13 9 7 8 6 8 17 20 11 6 13 8 8 10 17 26 24 18 20 21 20 23 20 10 7 10 11 12 15 12 7 9 10 10 9 8 5 4 6 10 15 20 21 20 24 32 36 40 45 47 46 43 39 37 35 33 34 36 35 33 31 28 26 24 21 19 17 14 11 9 7 5 2 1 3 6 8 9 10 12
12 10 11 14 13 15 15 10 8 7 4 9 16 12 4 11 10 10 12 11 15 19 16 15 18 18 18 18 13 9 12 14 15 16 9 2 4 7 6 5 5 6 6 7 11 18 22 27 30 29 32 40 43 44 48 50 46 42 40 37 33 34 37 37 35 32 30 28 26 23 21 18 16 13 10 8 7 4 2 2 3 6 7 9 10 11
7 7 9 12 13 13 12 10 10 8 6 12 16 9 9 8 7 11 14 13 14 15 13 13 15 14 14 15 13 12 14 15 16 16 9 6 8 8 6 5 4 3 5 7 14 22 22 20 24 28 32 39 45 48 51 52 47 42 39 35 33 36 38 36 34 32 30 28 25 23 20 18 15 13 10 8 6 4 2 2 4 5 6 8 10 11
9 7 7 9 10 9 9 9 9 6 9 16 15 7 8 12 12 13 15 14 12 13 14 15 14 13 13 14 13 13 14 14 14 14 14 13 12 8 7 8 6 6 7 7 11 21 22 13 12 20 28 37 45 49 52 52 46 42 37 33 34 38 36 34 34 33 30 28 25 22 20 17 15 12 10 8 6 4 2 2 4 5 6 8 8 9
10 8 6 7 9 8 8 10 10 10 13 19 16 10 14 19 18 17 16 14 11 13 13 13 13 14 14 13 13 13 14 14 14 14 15 14 13 11 9 8 7 7 8 6 10 21 23 12 9 18 28 37 44 46 50 53 48 41 35 33 36 38 36 35 35 32 30 28 25 22 20 17 15 12 10 9 6 4 3 2 3 4 6 7 6 6
14 15 13 11 11 11 10 10 11 11 12 16 17 18 21 23 22 21 18 15 13 13 12 11 12 12 12 12 13 13 12 13 15 15 14 14 14 12 8 6 6 6 6 6 10 21 25 21 19 20 23 31 40 44 48 52 50 42 35 36 40 41 39 37 35 32 30 28 25 23 21 18 15 13 10 9 7 5 4 2 3 5 6 6 4 4
14 19 18 13 10 11 12 11 12 13 14 16 19 21 22 21 18 17 17 16 16 15 13 12 12 11 10 9 10 11 12 13 15 15 14 14 13 10 6 6 6 6 6 6 10 18 24 26 25 19 16 23 35 40 42 48 49 43 38 40 43 42 41 39 36 33 31 28 25 23 21 18 16 13 11 9 7 6 4 3 4 5 5 4 3 4
7 9 10 9 11 12 9 8 11 16 17 17 18 19 20 19 16 14 14 15 15 16 16 16 15 13 8 7 8 11 14 14 14 14 13 12 11 10 9 9 9 9 9 9 15 22 22 18 15 13 12 17 29 38 39 40 41 40 41 43 43 42 41 40 37 34 31 28 26 24 21 19 17 15 13 10 8 7 6 4 4 4 3 2 3 5
4 5 6 6 9 10 9 8 11 14 14 13 13 13 13 15 17 17 16 15 14 15 15 15 14 10 6 7 10 13 14 15 15 14 13 11 10 9 10 10 10 10 9 10 19 26 21 12 12 15 13 16 28 39 39 35 34 36 41 44 43 42 42 39 37 35 32 29 27 25 21 19 18 15 14 12 9 8 6 5 4 3 2 1 3 6
6 6 5 6 8 11 13 14 15 15 14 14 13 10 7 8 12 13 13 13 13 13 14 13 12 10 9 11 12 12 13 15 16 15 14 12 10 10 11 12 10 10 9 10 22 32 25 15 14 14 12 19 34 41 39 35 34 36 39 42 43 43 42 39 36 34 31 29 27 24 22 20 18 16 14 12 10 9 6 5 4 3 2 1 4 7
8 9 8 7 9 10 10 11 11 10 11 13 14 12 7 6 9 11 11 12 13 14 15 16 16 14 13 14 14 14 14 15 17 17 15 12 12 14 14 12 9 10 9 12 24 31 27 26 27 20 17 28 40 42 38 35 34 36 38 41 42 43 42 40 37 33 30 29 27 25 23 21 18 16 14 12 11 9 7 6 5 4 2 3 5 7
8 10 8 8 11 11 11 11 10 10 11 13 14 15 11 9 10 12 12 12 14 15 16 17 17 17 16 15 15 16 17 18 20 19 16 15 16 15 12 11 11 12 10 12 17 17 15 22 30 25 23 34 42 39 36 36 35 36 39 41 43 43 42 41 39 34 30 29 27 25 23 21 18 17 14 12 10 9 8 7 5 5 3 3 6 6
Wind_Direction
240 228 227 239 233 218 210 214 237 294 14 265 258 255 254 258 268 260 127 117 150 242 251 245 249 259 264 264 265 266 249 245 256 252 254 252 231 221 221 215 208 219 228 216 202 196 192 195 199 201 199 197 197 196 195 196 197 196 196 196 195 196 197 194 193 194 194 191 193 197 203 210 215 230 240 249 252 254 258 260 267 275 280 282 289 299
195 228 239 241 233 195 206 205 204 181 183 235 239 252 257 249 262 269 111 130 153 221 256 253 259 262 261 264 264 258 245 254 260 253 255 256 239 222 220 218 214 220 222 194 197 196 189 194 198 200 201 197 195 195 196 197 198 197 196 198 196 196 198 197 195 196 196 194 194 194 200 205 209 225 236 242 245 251 256 259 264 270 277 283 291 298
207 237 244 222 107 96 92 148 190 207 200 213 224 251 263 255 270 280 100 119 163 219 266 272 276 271 265 262 262 257 237 243 257 257 260 264 254 236 218 214 215 219 219 206 203 197 191 194 195 197 201 199 196 195 196 198 198 196 196 198 197 199 200 199 199 200 199 199 200 198 198 205 214 226 235 238 242 249 255 258 263 270 277 284 290 294
212 245 250 110 126 152 137 150 181 195 201 206 205 235 249 241 281 268 104 114 189 222 285 291 281 271 265 258 256 258 246 244 257 261 263 264 258 252 229 206 209 216 221 212 202 196 194 195 194 197 198 196 195 195 196 197 196 196 198 198 197 201 203 202 204 204 201 203 207 208 210 218 227 235 243 249 254 256 257 261 266 273 279 284 288 291
234 233 107 111 153 178 164 167 185 201 214 210 212 230 247 245 227 247 342 341 237 218 276 292 284 264 243 244 251 259 255 258 264 266 266 260 251 249 236 211 212 220 220 208 198 195 195 197 197 198 195 193 195 197 198 197 197 198 199 199 199 202 204 204 206 205 201 203 206 210 217 227 236 240 244 248 252 253 255 260 264 270 279 285 288 292
248 188 126 130 146 179 183 195 201 206 220 225 219 226 242 258 246 235 25 338 280 244 201 321 304 287 185 197 241 234 240 260 255 246 263 265 237 216 228 223 215 224 221 207 200 194 196 199 197 196 193 194 198 200 201 200 200 201 201 200 201 203 203 204 206 204 200 201 201 201 207 214 222 228 231 233 237 241 250 260 267 275 284 288 291 295
249 106 125 148 157 179 206 230 203 185 218 246 219 220 231 242 248 223 154 265 276 278 310 17 304 287 228 194 215 200 231 255 249 238 251 265 246 198 209 217 208 219 216 207 206 198 197 196 193 195 194 197 201 202 202 202 201 202 201 200 202 203 203 204 204 202 201 200 199 202 206 212 218 225 228 234 245 252 259 268 276 284 289 292 295 298
132 125 140 163 170 186 216 239 186 169 210 246 109 117 175 188 205 195 196 232 272 316 294 198 239 275 268 219 220 226 234 248 259 259 252 248 253 235 198 202 209 215 206 198 206 202 199 195 193 197 197 200 202 201 201 201 200 201 200 201 202 203 204 204 203 202 203 200 200 205 210 218 226 232 236 241 252 260 267 274 281 286 289 293 297 299
109 160 174 168 179 203 216 247 158 174 202 273 91 87 107 126 150 159 204 245 275 325 274 199 187 266 270 193 203 240 234 238 247 253 252 241 247 246 199 200 212 211 202 200 205 204 199 197 198 198 200 201 199 200 201 200 199 200 200 201 202 203 204 204 203 203 205 203 203 207 211 219 226 234 240 243 250 259 268 275 280 285 289 293 298 301
61 203 196 167 184 209 185 43 86 193 200 130 127 97 88 88 85 121 230 257 256 273 254 193 166 245 277 168 146 182 213 226 236 241 248 243 244 246 206 204 211 203 201 206 208 206 201 200 200 199 199 197 196 202 203 200 199 199 199 201 202 203 203 204 203 203 206 207 207 210 212 216 221 228 237 242 248 256 266 274 279 283 287 292 298 303
85 55 294 212 200 175 105 73 26 44 118 139 145 114 102 116 94 116 231 206 260 258 232 196 183 211 274 179 147 161 180 201 215 225 244 250 250 242 212 203 201 193 196 202 206 207 201 199 196 195 197 194 195 202 201 199 200 199 199 201 202 202 202 202 202 203 205 208 210 213 216 219 221 224 232 239 245 251 260 267 273 278 282 290 295 299
141 177 216 224 127 107 109 94 54 63 122 159 159 148 200 217 148 170 173 150 242 259 216 194 191 201 240 237 159 163 168 195 208 213 229 236 240 234 206 194 192 187 188 188 197 199 193 194 192 192 197 194 191 196 197 199 200 199 200 200 199 200 201 201 201 202 204 208 212 217 221 223 223 224 229 236 240 243 249 255 263 269 275 282 285 287
193 205 169 99 235 185 159 122 93 102 179 194 173 162 230 264 264 239 219 185 233 254 118 126 180 211 240 251 218 185 193 219 217 214 228 222 226 231 197 182 180 176 183 184 190 193 189 192 192 193 196 193 190 192 194 196 198 199 200 200 197 197 199 200 200 201 204 208 213 218 221 222 223 227 231 234 239 241 244 250 256 261 265 271 272 274
224 252 143 171 232 196 186 184 185 188 183 189 180 173 207 224 247 254 242 232 256 256 138 132 154 240 260 258 222 209 216 221 204 211 240 232 226 241 152 164 171 175 190 189 190 193 191 193 193 192 193 193 192 193 192 193 197 199 199 198 196 195 197 199 199 200 203 207 213 219 220 220 223 228 231 233 239 241 245 250 254 260 264 266 271 277
235 268 174 171 173 168 189 207 190 118 156 186 177 169 213 204 207 251 262 269 285 299 207 166 179 245 271 266 201 207 220 222 189 201 231 241 242 307 61 175 186 190 198 196 200 201 199 197 191 190 193 195 194 193 192 192 195 198 199 197 194 192 196 197 198 199 201 206 212 216 218 220 223 226 228 233 238 243 247 251 255 261 265 267 271 278
238 271 154 135 98 160 178 231 51 96 147 178 102 163 231 210 198 247 298 293 319 313 261 188 214 251 253 157 139 159 223 208 185 211 221 235 234 204 210 230 211 209 207 198 208 211 205 199 193 193 195 196 194 192 192 194 196 198 198 197 192 192 195 196 197 199 200 205 210 214 217 219 223 225 227 232 238 244 248 252 257 262 267 271 273 278
229 281 99 93 341 132 117 350 53 94 197 153 158 200 203 74 200 227 270 82 94 279 266 216 248 272 274 232 169 169 202 168 181 224 221 228 228 207 219 230 214 216 211 202 211 211 203 199 198 199 197 196 194 194 196 197 198 199 198 195 190 191 195 195 197 198 200 205 208 212 215 218 222 225 228 233 238 245 250 256 261 268 274 275 277 282
217 272 167 142 169 92 354 326 76 3 15 139 192 201 137 58 308 228 260 282 228 257 271 267 268 276 275 264 148 166 200 193 208 224 220 225 229 223 230 234 227 224 214 209 216 214 207 203 203 202 201 200 198 197 199 198 199 200 198 195 191 190 194 194 195 197 200 204 207 209 213 217 221 225 229 234 240 246 251 259 264 271 278 278 282 286
189 247 244 122 53 105 103 239 161 80 58 118 269 255 131 210 180 162 211 245 246 250 272 278 279 276 257 241 211 187 192 202 217 220 218 223 223 223 230 232 231 227 215 214 216 212 211 208 205 204 202 202 202 200 198 196 198 200 198 196 194 193 193 193 194 197 201 204 206 209 212 217 220 225 230 234 241 247 253 262 267 274 280 283 287 289
167 231 240 29 342 98 137 214 194 180 160 109 279 245 281 267 185 178 175 209 242 246 274 282 282 277 236 162 209 209 182 195 212 209 213 219 216 218 222 225 227 224 217 218 217 212 213 212 208 205 203 202 200 197 193 194 198 198 197 195 194 192 192 192 194 196 199 203 207 209 212 216 219 224 229 233 240 248 255 266 273 280 285 288 292 293
113 228 233 105 336 230 193 199 197 193 177 178 202 189 192 191 65 284 232 183 233 239 253 269 274 274 256 113 168 194 170 192 196 197 211 214 219 221 217 221 226 225 223 219 219 216 213 212 208 205 203 198 195 193 193 197 197 195 194 194 192 191 189 190 192 195 198 202 206 209 210 214 218 221 227 232 239 248 259 271 277 284 289 293 297 299
159 210 220 191 208 224 225 205 192 226 190 183 194 188 189 178 149 220 232 201 183 236 237 236 266 270 265 98 131 154 149 191 181 191 207 207 219 223 216 221 221 219 226 222 220 219 210 207 204 199 196 191 192 193 193 195 193 191 192 192 191 189 188 188 191 194 198 201 204 207 209 212 216 219 224 230 239 250 263 274 281 287 292 296 300 303
150 149 216 225 228 227 269 20 40 312 331 222 230 209 192 184 181 205 223 209 166 231 247 232 268 268 259 85 71 141 142 173 182 194 202 198 215 218 213 220 221 222 231 229 223 220 211 205 198 193 194 192 193 192 188 189 190 189 190 190 189 188 187 188 191 193 197 200 202 205 207 210 213 216 221 227 239 253 265 275 282 289 294 298 302 308
103 120 212 242 273 271 70 87 141 172 133 210 238 215 195 202 204 209 232 241 197 222 220 165 246 265 284 85 98 181 141 179 203 202 205 202 213 220 215 218 223 229 237 238 230 220 209 201 194 194 196 195 193 190 186 187 187 186 188 189 188 187 186 187 189 192 194 197 200 202 204 208 210 212 218 226 238 252 265 275 283 292 296 298 304 310
179 188 186 215 255 253 233 204 188 172 191 219 227 199 202 212 210 224 309 293 243 236 225 205 240 258 278 85 144 156 148 209 223 214 222 221 215 215 217 224 229 229 234 235 226 210 204 203 200 201 198 194 193 190 187 186 185 184 186 187 186 185 185 186 187 190 192 194 196 198 201 204 206 210 216 224 238 251 263 274 283 291 296 298 304 311
183 184 178 199 227 229 232 235 214 150 186 224 217 192 198 206 206 210 214 214 235 234 216 218 245 257 279 290 269 233 203 220 216 198 218 233 235 230 226 232 230 223 227 229 217 201 206 210 206 203 200 196 193 188 186 184 183 183 182 184 185 183 183 184 185 187 189 191 192 195 199 200 203 208 214 223 236 248 260 274 283 289 295 299 304 311
166 193 194 206 221 222 232 244 237 118 161 204 200 193 199 206 206 205 215 223 227 212 207 228 243 256 275 281 277 270 258 247 238 234 225 218 223 225 228 236 231 224 226 224 213 205 212 215 210 206 202 198 193 187 185 184 182 180 179 180 183 183 181 181 183 185 186 188 190 192 196 198 201 206 213 223 232 245 258 272 281 287 294 299 307 315
140 224 212 216 228 228 235 246 241 186 190 211 198 194 204 209 206 210 224 221 165 122 236 239 243 254 265 268 271 273 269 261 257 261 254 237 225 215 221 235 235 233 234 225 213 216 219 215 210 208 204 198 192 186 184 184 182 179 178 178 180 181 180 179 181 182 184 186 189 192 193 196 200 205 212 220 228 242 257 269 277 284 293 302 311 318
185 229 222 225 237 237 239 250 249 232 219 224 212 203 206 208 205 211 223 218 182 214 242 247 251 257 258 256 260 267 273 278 277 271 265 258 251 236 232 237 233 225 222 219 217 218 219 214 206 206 203 195 189 186 184 183 180 178 177 177 178 178 178 179 179 181 183 185 188 191 192 195 199 204 211 217 225 238 251 265 276 284 296 305 315 322
198 228 228 231 243 245 245 252 253 249 247 246 239 223 221 225 219 216 225 223 217 231 247 263 264 263 262 259 261 269 278 284 287 283 278 267 256 257 262 260 254 241 219 212 217 218 214 210 207 203 196 191 189 187 184 182 180 177 175 175 177 176 177 179 179 179 182 185 187 190 191 194 199 203 209 214 221 234 245 261 276 287 300 311 322 326
218 226 232 236 244 245 244 248 250 251 252 254 257 254 248 247 240 230 231 227 224 238 253 262 267 269 264 262 263 266 271 280 282 276 273 265 258 265 270 267 266 265 247 219 216 216 210 208 208 200 194 194 193 187 184 181 178 174 173 174 175 175 176 177 177 178 181 184 187 190 190 193 198 201 206 211 218 230 244 260 275 291 308 321 326 326
218 233 238 241 249 243 240 245 247 244 244 251 255 250 246 246 244 237 235 228 221 232 241 244 248 250 253 259 262 261 263 268 267 264 263 260 263 270 266 263 266 267 261 244 221 211 208 207 205 199 196 197 193 187 182 177 172 170 171 173 173 173 174 175 176 178 181 183 186 189 190 193 197 200 203 208 216 227 242 260 278 303 321 326 327 324
199 227 235 235 247 248 245 250 245 222 217 228 232 239 243 246 247 246 246 240 233 232 237 240 239 242 250 256 258 261 262 259 256 257 258 262 271 271 257 259 264 265 266 262 227 207 208 207 202 199 199 195 189 187 183 176 173 172 172 172 172 172 172 173 176 179 181 184 187 188 190 193 195 197 200 204 212 223 241 262 288 319 328 327 326 322
204 220 232 229 240 249 247 249 225 198 226 233 230 237 244 247 247 248 251 250 243 238 241 247 251 255 257 255 252 254 257 256 259 264 266 269 277 269 262 264 265 268 273 267 231 213 212 206 202 200 197 192 185 183 182 179 176 174 172 172 171 171 171 172 175 179 181 184 187 188 190 192 192 193 196 200 208 219 237 268 312 331 330 326 324 319
211 219 226 224 233 244 236 218 217 225 232 234 228 233 237 242 247 251 257 259 254 247 246 249 252 255 256 256 253 251 254 261 269 273 272 273 268 260 266 270 269 270 272 265 235 222 213 199 200 199 190 186 183 179 178 178 176 172 170 171 170 170 172 173 175 179 182 183 186 188 188 189 190 190 192 196 203 213 230 287 331 332 328 323 318 314
219 219 223 223 224 225 196 204 223 239 253 227 231 236 236 239 242 246 253 253 245 243 245 246 249 254 259 259 256 254 259 266 274 274 271 269 257 251 257 263 267 269 269 262 238 221 211 195 192 192 187 184 182 177 175 176 175 171 168 169 170 169 171 173 175 179 181 183 185 186 187 187 187 187 189 193 198 201 202 328 330 328 324 319 317 315
221 218 217 220 214 212 219 222 232 271 300 251 237 236 230 223 219 218 231 243 242 245 247 243 243 254 260 262 263 263 263 268 273 270 268 261 247 248 251 254 261 266 266 263 245 219 214 202 193 192 187 179 175 175 175 174 172 168 165 167 168 168 170 173 176 179 182 184 185 185 185 186 185 185 187 189 188 179 146 8 330 326 319 316 318 318
218 215 213 219 214 211 227 233 233 248 248 233 236 241 238 228 200 179 211 236 245 248 247 239 240 251 257 263 265 266 250 232 256 266 271 265 236 234 245 247 249 253 256 256 237 200 206 198 190 186 178 170 170 173 173 172 169 165 163 165 167 167 171 175 178 181 183 184 184 184 184 184 183 185 186 182 172 154 124 8 327 326 324 322 320 317
218 218 219 228 223 211 225 230 219 227 229 223 235 247 250 235 138 132 224 241 241 247 249 243 243 248 253 260 263 259 208 245 253 258 268 265 233 216 231 238 239 242 248 243 213 187 173 169 168 167 164 163 167 171 171 170 168 165 163 165 167 169 173 179 182 183 183 182 182 182 182 181 182 184 181 171 157 140 112 11 331 332 329 326 322 318
216 216 219 227 228 222 229 232 226 236 238 219 234 251 255 156 130 156 231 232 230 241 246 245 246 245 246 254 261 253 228 236 241 249 259 259 232 213 220 227 228 220 207 198 188 176 162 155 153 156 164 169 170 170 170 169 167 166 165 166 168 172 178 182 182 182 181 181 180 180 179 179 180 179 172 157 144 131 99 19 336 336 330 325 325 321
213 210 212 222 226 225 228 232 237 241 221 215 233 239 155 124 144 199 227 226 229 238 240 239 243 243 241 245 248 239 230 229 236 247 251 213 202 223 222 222 223 207 193 183 172 166 162 162 166 170 173 173 169 168 169 168 166 166 167 166 170 177 181 181 180 179 179 178 178 177 176 177 176 171 161 146 133 121 94 23 338 336 332 328 326 324
203 203 210 218 223 225 225 229 239 241 201 207 226 213 149 157 205 225 231 238 241 244 244 242 241 240 238 235 232 234 236 234 237 244 242 214 215 221 211 196 187 178 183 177 170 167 165 166 171 171 170 169 167 167 169 168 166 166 166 168 175 179 178 177 176 176 176 175 174 174 173 173 171 162 151 140 127 116 98 21 346 341 339 335 332 329
185 185 206 207 210 224 228 222 232 234 187 191 205 194 175 204 227 234 237 242 239 239 246 246 243 243 243 238 234 235 239 239 238 238 239 236 227 217 205 195 188 181 171 165 174 173 167 159 162 163 164 166 167 168 169 168 165 165 167 171 176 175 173 174 174 174 173 171 170 170 170 169 165 154 143 136 127 115 102 18 353 353 350 345 341 330
182 183 210 198 190 207 216 209 216 226 203 188 188 196 204 210 220 231 238 241 236 235 242 246 244 243 242 242 241 239 237 240 239 236 239 241 233 224 212 197 195 193 181 178 181 173 166 156 147 154 161 166 168 169 171 169 165 165 168 170 171 171 170 171 172 171 170 168 166 167 167 163 156 148 138 131 125 113 104 51 4 5 2 357 349 323
189 196 215 214 201 206 216 211 209 220 216 199 198 214 220 218 220 227 234 242 244 241 242 248 249 244 238 236 239 239 237 236 238 238 237 239 238 231 214 197 201 198 184 176 174 174 172 164 152 148 155 167 171 172 173 172 167 165 167 168 168 169 169 169 169 168 166 165 164 164 163 156 148 143 135 128 123 114 104 70 25 17 9 1 348 315
212 216 226 230 224 225 228 224 218 222 224 214 212 221 227 226 224 226 231 239 247 251 252 252 252 248 236 224 225 236 238 237 240 242 239 240 244 236 206 194 197 187 180 171 168 174 172 161 152 148 149 165 174 175 176 175 171 166 166 167 168 169 168 167 166 164 162 162 163 162 158 151 145 141 135 127 120 114 102 74 41 30 18 356 325 314
249 247 253 258 256 247 234 223 229 234 230 222 220 227 234 236 237 236 236 239 244 249 253 255 256 253 234 202 209 230 239 240 241 245 244 241 242 234 213 204 198 187 185 180 170 168 164 155 154 156 148 160 174 176 176 177 173 168 166 166 167 168 167 165 162 160 160 161 162 161 155 150 147 142 133 125 120 118 106 77 51 40 29 342 306 315
304 332 336 312 284 277 286 301 291 277 265 250 239 236 239 245 246 245 247 251 252 253 256 260 263 261 238 213 221 232 243 247 244 244 246 242 236 231 223 219 207 188 179 174 167 166 164 161 165 166 159 162 172 175 174 173 172 169 166 166 167 167 164 162 160 159 159 161 161 159 154 151 150 143 133 125 120 120 114 94 73 62 49 300 301 313
291 296 300 299 290 284 289 299 301 298 295 286 275 269 271 277 276 271 270 273 274 274 275 273 269 261 246 242 241 236 241 248 247 244 244 241 236 231 225 223 210 185 174 174 173 173 174 173 166 162 158 163 169 172 171 169 170 170 166 165 167 166 161 159 158 157 158 160 158 155 153 152 149 143 136 127 119 116 115 102 84 74 62 332 317 321
277 270 269 275 273 268 273 281 284 288 290 287 286 288 284 269 269 270 271 273 270 268 269 269 266 259 249 247 248 242 241 247 249 246 243 239 239 237 228 216 198 183 178 176 176 178 180 178 172 164 156 163 168 169 168 166 166 167 166 166 167 165 160 157 155 156 159 159 156 155 155 152 146 141 135 126 117 110 107 105 96 82 55 353 335 332
251 257 259 263 265 267 274 282 284 286 284 281 287 295 294 281 272 269 266 264 260 257 259 262 264 264 259 252 246 241 241 245 247 248 246 242 241 240 224 201 188 184 176 167 173 180 181 176 173 166 159 165 167 165 163 163 163 165 167 168 167 166 163 158 156 157 160 159 157 156 156 151 145 140 133 125 117 103 93 95 97 106 106 25 354 353
Height
823 822 821 815 807 805 806 806 806 809 812 815 816 818 816 813 806 799 808 821 822 818 808 801 801 794 786 781 775 771 775 777 772 768 764 761 764 767 769 771 774 775 773 774 779 781 783 786 789 793 795 798 800 803 805 807 809 811 813 815 816 818 820 821 823 824 825 826 826 827 828 828 829 829 829 829 829 828 828 827 827 827 826 826 825 825
825 822 812 801 798 803 807 809 812 816 819 818 817 818 815 813 807 800 811 822 823 820 806 798 802 794 786 780 771 769 773 771 761 758 757 754 757 760 762 766 768 769 770 774 776 778 781 783 786 790 792 794 796 798 800 802 805 807 809 811 813 815 817 818 819 821 822 823 824 824 825 826 827 827 827 827 827 826 826 826 825 825 825 824 823 823
825 816 801 797 804 811 815 819 818 817 819 819 818 820 815 809 805 803 816 825 824 821 805 800 805 792 780 777 767 761 765 761 751 750 751 749 751 752 754 759 762 766 767 769 772 774 777 780 783 786 788 789 791 794 797 799 801 804 806 808 810 811 813 815 816 817 819 820 821 822 823 823 824 824 825 825 825 824 824 824 823 823 822 822 821 821
820 807 801 806 810 811 817 823 821 817 819 818 817 817 809 806 807 803 814 826 822 819 811 808 808 789 773 769 759 755 758 756 749 749 749 747 746 745 748 753 756 760 761 762 767 770 773 777 779 780 782 785 788 791 793 795 797 800 802 804 806 808 810 812 813 814 816 817 818 819 820 821 821 822 823 823 822 822 822 822 821 821 820 820 819 819
804 803 814 817 812 809 814 821 821 816 814 815 816 812 802 802 808 805 813 821 815 816 821 814 795 770 761 760 753 753 760 758 753 752 749 744 743 743 745 748 751 752 754 757 761 765 769 771 773 775 778 782 785 786 787 789 792 794 797 800 803 805 807 808 810 812 814 815 816 817 818 819 819 820 821 821 821 820 820 819 819 818 818 817 817 816
801 809 817 814 815 814 811 814 815 811 809 811 811 805 800 801 806 811 819 820 809 808 817 815 791 761 753 758 751 751 758 756 754 753 745 737 737 743 744 744 747 748 750 753 756 760 763 765 769 772 775 778 779 780 782 784 788 790 794 797 800 802 804 806 807 809 811 812 813 814 815 817 817 818 818 818 818 818 818 817 816 816 815 815 814 814
806 817 817 810 814 814 811 810 808 809 809 808 807 805 805 806 810 816 821 819 808 804 812 817 804 776 757 752 744 745 751 748 747 745 738 732 730 735 741 741 744 746 747 750 753 755 759 761 765 767 769 772 773 775 777 781 784 787 791 794 797 799 801 803 804 806 808 809 811 812 813 814 815 815 815 815 815 815 815 814 813 813 812 812 811 811
807 817 819 812 811 813 811 805 802 807 807 805 812 814 810 811 816 818 819 817 809 810 813 811 811 796 768 751 740 738 746 746 741 738 733 730 725 725 733 738 740 741 743 746 749 751 754 756 759 761 764 765 768 771 774 777 781 784 788 790 793 796 798 800 802 803 805 807 808 810 811 812 812 813 813 813 813 812 812 811 811 810 810 809 809 808
805 810 812 811 813 810 804 799 800 802 802 809 821 822 816 817 819 818 818 815 815 821 813 801 810 802 763 745 747 745 746 746 740 734 728 725 722 720 726 733 735 736 739 742 744 746 749 752 754 756 759 762 765 769 771 774 778 781 785 788 790 793 795 797 799 800 802 804 806 808 809 810 810 810 811 811 811 810 810 809 809 808 808 807 806 805
807 811 809 806 806 801 798 808 812 803 801 817 827 822 821 824 822 822 819 815 821 825 808 794 804 796 750 730 749 758 753 745 735 728 722 718 718 719 723 729 732 734 737 739 741 743 745 748 751 754 757 760 763 766 769 772 776 779 782 785 787 789 792 794 796 798 800 802 804 805 806 807 808 808 809 809 809 808 808 808 807 806 806 804 804 803
812 819 816 806 801 800 806 821 825 817 814 822 822 815 818 822 822 825 820 818 823 809 789 780 785 790 759 726 733 743 738 731 725 722 719 715 716 718 721 726 728 731 734 737 739 741 743 746 749 752 755 758 760 763 767 770 772 776 778 781 783 786 789 791 793 795 797 799 801 802 803 804 805 806 806 806 806 806 806 805 805 804 803 802 801 801
811 814 809 805 806 807 809 817 825 828 825 820 812 806 811 812 814 821 821 825 821 791 775 777 776 784 766 729 721 722 718 719 717 716 714 712 713 713 717 722 725 729 732 734 737 739 741 744 746 749 751 754 757 759 763 765 768 771 774 777 780 782 785 787 789 792 793 796 797 799 800 801 802 803 803 803 803 804 804 803 803 802 801 800 799 798
800 801 800 803 810 808 800 805 819 826 823 816 807 806 811 809 809 811 808 812 804 779 780 790 784 777 750 719 717 719 716 717 715 713 710 708 710 708 712 720 724 728 730 732 735 736 738 740 742 744 747 750 752 753 756 760 763 766 769 772 775 778 780 783 785 788 790 792 794 795 797 798 799 799 800 800 800 801 801 801 800 799 799 798 797 796
791 794 801 802 800 800 792 790 799 806 810 808 799 801 806 807 812 807 793 792 786 772 782 796 789 769 737 712 710 712 709 709 711 714 711 709 709 708 713 721 724 728 730 730 732 733 734 736 737 740 742 745 746 749 752 755 758 761 764 768 771 773 776 778 781 784 786 788 790 792 793 794 795 796 796 797 797 798 798 797 797 796 796 795 794 793
787 779 783 787 783 785 785 777 777 786 799 801 791 793 795 792 797 791 778 776 774 767 779 796 782 748 724 709 700 700 702 702 707 711 712 712 714 716 721 724 724 726 728 729 730 731 731 732 734 737 739 740 742 745 749 751 753 757 759 762 765 768 771 774 777 779 782 784 786 788 789 791 791 792 793 793 794 794 794 794 793 793 792 791 790 789
789 770 768 782 782 781 782 778 779 784 793 800 797 797 793 781 777 781 782 786 789 783 778 781 760 720 705 705 701 704 705 705 710 709 710 714 714 719 724 721 722 723 725 728 728 728 729 730 732 733 735 737 739 743 745 747 749 751 754 757 761 763 766 770 772 775 778 780 782 784 785 787 788 788 789 790 791 791 790 790 789 789 789 788 787 786
782 772 777 790 787 789 792 787 788 785 784 797 800 793 788 783 775 778 791 800 806 794 764 750 741 714 702 702 700 705 706 708 715 710 708 712 710 715 718 716 718 719 720 725 725 726 727 727 729 729 731 733 735 737 739 740 743 745 749 753 757 760 763 766 768 771 774 776 779 781 782 783 784 784 786 786 787 787 787 787 786 785 785 784 784 782
768 769 779 788 784 794 805 796 793 792 787 792 792 782 782 788 783 781 789 793 796 790 758 736 734 717 706 707 703 706 709 711 713 707 706 710 710 712 712 710 713 713 716 720 722 724 724 724 725 725 727 728 729 731 733 736 739 742 746 749 752 756 758 762 765 767 771 773 775 777 778 780 780 781 782 783 784 784 784 783 783 782 782 781 781 779
765 766 777 793 791 794 804 794 787 793 794 791 788 784 780 780 782 786 792 787 783 784 760 734 727 709 694 699 699 700 706 707 706 704 705 707 709 710 709 708 710 711 714 717 718 720 720 719 721 720 722 724 725 728 730 734 737 739 743 746 749 752 755 759 762 765 768 769 771 773 774 776 777 778 780 780 781 781 781 780 780 779 779 779 778 777
764 764 769 794 802 794 794 790 780 782 793 796 792 789 782 775 774 777 782 776 769 772 760 741 727 695 671 678 684 685 693 696 698 701 702 703 703 705 705 704 706 707 709 711 713 715 715 715 715 716 718 720 722 725 727 731 734 736 740 743 746 750 753 756 759 761 764 766 768 770 771 773 774 775 777 777 778 778 778 778 777 776 777 776 775 774
765 765 763 788 806 792 778 773 765 760 772 786 784 781 781 779 779 779 776 771 766 766 762 757 736 686 658 669 675 677 684 684 688 694 696 699 699 698 699 699 700 702 703 706 708 709 710 711 712 713 715 718 720 723 725 727 730 733 737 740 743 746 749 752 755 758 760 762 764 766 768 770 771 773 774 775 775 775 775 775 774 774 774 773 773 771
762 763 759 774 787 775 758 756 760 755 754 762 764 764 765 767 774 777 773 771 774 765 751 755 742 687 656 669 674 676 683 682 685 690 691 695 696 694 696 695 696 699 699 702 703 703 706 707 709 711 713 715 717 719 722 724 727 730 733 736 740 742 745 748 751 754 756 759 761 763 765 767 768 770 771 772 772 772 772 772 772 772 771 771 770 768
753 757 758 758 757 757 761 768 774 770 760 758 757 754 753 756 759 761 760 762 772 767 750 758 752 691 652 666 676 678 683 682 684 687 686 689 690 690 692 693 695 697 697 698 699 701 704 704 707 709 710 712 714 715 718 720 723 726 729 732 735 738 741 743 746 750 752 755 758 760 762 764 765 767 768 769 769 769 769 769 769 769 768 768 767 765
755 756 758 757 748 749 765 774 776 774 766 760 757 754 753 753 748 748 750 751 755 754 747 762 758 699 656 666 678 678 682 683 685 687 686 685 686 687 691 693 695 696 695 697 698 700 702 703 705 706 707 709 710 712 714 716 719 723 725 728 731 734 737 739 743 746 749 752 755 757 759 761 762 764 765 766 766 766 766 765 765 765 765 764 763 761
752 753 756 764 761 754 758 760 762 770 767 756 752 754 753 750 749 751 756 760 755 739 733 747 740 694 663 671 680 681 684 683 686 690 690 688 686 688 691 692 692 693 694 695 696 698 700 701 701 701 702 704 706 708 710 712 716 719 721 724 727 730 733 735 739 742 745 749 752 754 756 758 759 760 761 762 762 762 762 762 762 761 761 760 759 758
739 743 746 758 763 757 748 737 734 748 759 754 750 752 750 749 750 749 752 758 748 728 727 734 716 684 670 672 673 676 680 680 684 690 693 692 690 689 690 689 687 689 691 691 692 695 697 697 697 697 698 699 701 703 706 708 712 714 718 721 723 725 728 731 735 739 742 746 749 751 753 754 756 757 758 758 758 758 758 758 758 757 757 756 755 754
735 733 730 734 736 734 729 720 716 728 742 745 745 746 744 742 741 742 743 739 729 725 728 719 701 691 689 680 670 666 668 671 675 679 684 686 687 689 689 686 683 684 685 686 688 692 693 693 692 692 693 694 696 698 701 704 707 710 713 716 719 722 725 728 732 736 739 743 746 748 749 751 752 753 754 754 754 755 754 754 754 754 753 753 752 750
735 731 725 721 717 715 713 709 709 719 726 728 733 737 737 736 739 741 733 719 718 729 723 702 695 703 701 687 672 661 660 665 668 670 672 673 676 681 682 681 681 682 682 683 686 687 687 686 687 687 688 690 692 694 697 700 703 705 709 712 715 718 721 725 729 732 737 740 743 745 746 747 748 749 750 750 750 751 750 750 751 750 750 750 748 747
732 728 722 718 715 711 709 705 703 709 715 717 720 725 727 729 733 732 722 713 715 717 704 690 694 700 694 681 667 657 658 662 663 663 664 666 669 672 674 674 674 676 677 679 680 680 679 678 679 681 682 684 687 690 693 696 699 702 706 709 712 715 718 721 725 729 734 737 740 742 743 744 745 745 746 746 746 746 746 747 747 747 747 746 745 743
731 724 718 717 717 714 712 708 703 707 715 716 715 718 718 715 715 717 717 714 710 701 693 692 696 693 682 669 660 657 657 657 658 659 659 660 661 665 668 666 663 664 667 670 670 669 669 671 672 674 677 679 682 684 687 691 694 698 702 705 708 711 715 718 722 726 731 734 737 739 740 741 742 742 743 743 743 743 743 744 744 744 744 742 742 741
731 723 716 716 719 716 711 706 704 708 713 713 715 716 710 701 701 708 710 708 708 705 700 702 705 695 675 661 659 660 656 656 659 657 654 651 650 657 662 658 654 655 656 656 658 659 661 665 667 669 671 673 674 677 681 685 689 694 698 701 705 708 712 715 720 724 728 731 733 735 737 738 739 739 740 740 740 740 740 741 741 741 740 739 738 738
732 725 719 720 721 716 708 705 706 709 715 721 721 710 696 689 691 692 689 690 698 703 702 705 705 690 667 656 657 656 653 656 656 651 646 643 644 653 657 652 648 648 646 645 647 651 655 658 660 661 663 665 668 671 675 679 684 689 694 698 702 705 709 713 717 721 725 728 730 732 734 735 736 737 737 737 737 737 738 739 738 737 736 735 735 735
731 726 721 723 724 716 708 707 709 715 726 726 709 687 678 680 682 677 673 676 682 687 692 692 683 668 657 655 655 652 651 652 648 643 640 638 643 650 649 644 642 640 638 638 639 643 646 648 650 652 654 657 661 664 668 673 678 684 689 694 698 702 706 711 715 718 722 724 726 728 730 732 733 734 734 734 734 735 736 735 734 733 732 732 733 733
728 725 722 722 723 717 711 712 718 724 721 701 678 672 675 676 673 669 667 668 671 674 676 671 660 654 652 649 645 645 645 642 639 636 632 634 643 646 640 635 634 632 631 631 632 635 638 639 642 645 648 652 656 660 665 670 675 681 686 691 695 700 704 708 712 715 718 721 723 725 727 729 730 731 731 732 732 732 732 731 730 730 730 730 730 730
725 725 721 717 718 716 715 723 727 716 695 678 671 672 672 667 663 664 664 662 664 666 665 660 653 649 644 637 634 636 637 636 636 632 627 630 639 640 634 629 627 627 626 626 627 628 630 633 637 640 644 649 653 658 664 669 674 679 684 688 693 697 701 705 709 712 715 718 720 722 724 725 727 728 728 729 729 729 728 727 726 727 727 728 728 728
715 718 715 713 715 717 719 722 711 688 677 682 680 669 663 662 661 664 665 660 657 660 657 651 647 643 634 628 628 630 631 635 637 629 622 626 633 633 630 625 622 622 621 620 621 623 624 628 631 635 640 644 650 656 661 666 672 676 682 687 691 695 699 703 707 710 712 715 716 718 721 722 723 724 725 726 726 725 724 723 724 724 725 726 726 726
702 706 710 710 707 707 709 702 688 681 682 682 670 655 650 649 648 655 661 656 650 649 645 642 644 641 630 622 622 625 631 639 639 626 615 619 627 626 624 621 617 616 616 615 617 618 620 624 627 631 636 641 647 653 658 664 670 675 681 686 690 694 698 701 704 707 709 711 713 715 717 719 720 721 722 723 722 721 720 721 721 722 723 724 724 723
694 694 700 703 696 693 697 696 692 692 683 665 651 638 631 633 639 646 654 655 647 636 629 631 637 633 625 619 617 622 632 641 639 622 609 612 619 619 617 616 614 613 612 613 614 616 619 622 626 630 634 639 645 651 656 662 668 674 680 684 688 692 696 699 702 703 705 708 710 712 714 715 717 718 719 719 718 717 718 719 720 720 721 721 722 721
692 691 693 697 693 689 691 690 685 676 660 647 640 630 625 632 641 647 657 656 640 621 615 622 627 624 620 615 612 620 633 639 632 616 604 604 610 613 612 611 611 611 611 612 614 616 618 621 626 630 634 639 644 649 654 660 665 671 677 681 685 689 693 696 698 700 702 705 707 710 711 713 714 715 716 715 714 715 716 717 718 718 719 719 720 719
691 693 694 693 690 685 682 676 666 654 645 639 635 629 628 632 639 653 661 645 618 606 608 614 616 616 614 611 611 620 628 626 617 605 597 598 604 607 607 607 607 608 609 611 613 616 618 621 624 628 632 635 639 644 650 656 662 668 672 677 682 685 688 691 694 696 699 702 705 707 709 711 712 713 713 712 712 713 714 715 715 716 717 718 718 717
685 685 684 682 679 677 674 667 656 644 637 633 629 628 631 635 642 647 636 611 596 598 603 606 607 607 606 606 609 612 610 605 600 595 595 600 602 602 604 605 604 605 606 608 609 611 614 616 618 620 624 628 634 640 646 652 658 664 668 673 677 680 683 687 690 694 697 699 702 705 707 709 711 710 710 710 710 711 712 713 713 714 715 716 716 715
675 677 674 671 669 665 660 657 651 639 628 622 623 627 632 635 633 619 598 587 591 595 596 598 599 598 598 599 600 599 596 594 593 593 595 599 599 599 601 603 604 605 606 608 609 609 611 614 616 619 623 627 632 637 642 647 653 659 664 669 672 675 679 684 687 691 694 696 699 702 705 707 708 708 708 707 708 709 710 711 712 713 714 715 714 712
645 657 660 656 653 654 654 654 648 632 615 609 616 627 629 618 603 589 581 583 588 589 590 592 591 591 593 593 593 593 591 590 591 591 591 592 593 596 598 600 601 602 603 605 607 607 609 613 616 620 624 627 631 635 639 644 649 655 660 664 668 672 677 681 685 688 691 694 697 699 703 705 706 705 705 705 706 708 708 709 711 712 712 712 711 710
618 629 636 634 631 636 639 631 616 602 594 594 600 604 600 587 576 574 577 578 579 582 583 583 583 585 586 587 588 590 589 588 588 587 587 587 588 590 594 596 599 600 601 603 605 606 608 611 615 621 625 628 631 634 637 640 644 651 656 660 664 669 673 677 682 686 688 691 694 698 701 702 703 703 703 704 705 706 707 708 710 711 711 710 710 709
597 596 600 601 598 599 598 590 583 581 582 584 582 576 571 569 568 571 572 571 572 573 574 575 577 579 581 583 585 585 585 585 584 582 584 584 583 585 590 594 597 599 601 603 605 607 608 609 613 620 626 630 632 633 635 637 640 645 651 656 660 664 668 673 678 682 686 689 692 696 699 699 700 700 701 702 703 704 706 707 708 709 709 709 709 709
584 580 579 576 575 576 573 569 572 576 575 574 573 567 563 564 566 569 572 571 569 568 568 571 572 573 576 580 582 582 582 581 579 579 580 580 580 583 587 591 595 600 602 603 605 608 609 611 615 619 624 629 633 634 636 638 639 642 647 651 656 660 665 670 674 679 683 687 691 695 696 695 696 698 699 700 701 702 704 706 707 707 707 707 708 708
592 594 593 585 579 576 570 566 569 570 567 568 569 567 564 566 567 568 569 568 567 567 567 567 567 570 574 578 580 579 577 576 576 576 576 577 579 581 584 587 591 594 597 599 601 605 608 612 615 617 621 626 630 634 637 639 642 644 646 649 653 658 662 667 671 676 680 685 689 692 692 692 694 696 697 698 699 701 703 704 705 705 706 706 707 706
607 612 614 605 595 588 582 581 582 577 569 568 568 567 567 568 567 566 565 565 565 565 565 566 567 570 573 576 577 576 573 573 573 573 573 574 576 578 581 583 584 588 593 596 599 602 605 607 609 613 616 620 625 631 635 639 642 645 647 649 652 656 660 665 669 673 678 684 687 688 688 690 692 693 695 696 697 699 700 702 703 703 704 705 705 704
616 618 616 611 606 600 593 592 591 584 576 571 568 569 572 574 572 571 570 569 568 568 568 569 570 571 572 572 572 572 572 571 569 569 570 570 571 573 575 576 580 585 589 592 594 596 598 600 603 607 611 616 621 628 633 636 640 643 646 650 653 655 659 663 667 672 678 683 684 685 686 689 690 691 692 693 695 697 698 699 700 701 702 703 703 703
618 615 610 610 608 599 590 587 587 586 581 573 568 570 574 577 577 576 574 573 572 571 569 567 567 567 568 568 567 568 568 566 563 563 565 565 565 564 565 569 576 581 584 588 592 593 594 595 598 603 609 614 619 625 630 634 638 642 646 649 653 656 658 661 666 672 678 680 681 682 684 687 688 689 690 691 693 695 697 698 698 699 700 700 701 701
614 609 606 607 601 590 585 586 587 587 583 575 571 571 571 572 572 571 570 569 568 566 565 565 563 562 562 561 561 562 561 559 557 556 557 557 557 556 559 564 569 574 579 584 588 590 593 597 600 603 608 612 618 624 629 633 636 640 644 648 652 656 658 660 665 671 675 677 678 680 683 685 686 687 688 689 691 693 695 697 697 698 698 699 698 698